Date String (YYYY-MM-DD hh:mm:ss) UTC,Instrument flags,absolute air pressure of the measurement (hPa),sample flow rate (lpm),inlet stack bypass flow (lpm),air temperature of the measurement (°C),ambient temperature measured by the external sensor (°C),aerosol sample conditioner tube jacket temperature (°C),OPC LED temperature (°C),internal box temperature (°C),relative humidity of the measurement (%),span deviation,mass concentration of particles derived from Lorenz-Mie calculation of OPC scattering (μg/m³),mass concentration of particles derived from Lorenz-Mie calculation of OPC scattering (μg/m³),mass concentration of particles derived from Lorenz-Mie calculation of OPC scattering (μg/m³)
DateTimeUTC,F1_M11,P_M11,Q1_M11,Q2_M11,T1_M11,T2_M11,T3_M11,T4_M11,T5_M11,U1_M11,ZSPAN_M11,X0_M11,X2_M11,X1_M11
2024-06-08 21:00:00,SystemResetWarning,0828.1,5.00,000.00,029.1,028.3,000.0,037.4,030.9,037.5,0000.0,0016.29,0005.91,0004.38
2024-06-08 21:01:00,SystemResetWarning,0828.1,5.00,000.00,029.2,028.5,000.0,037.4,031.1,038.1,0000.0,0016.36,0005.93,0004.39
2024-06-08 21:02:00,SystemResetWarning,0828.2,5.01,000.00,029.3,028.7,000.0,037.4,031.2,036.7,0000.0,0015.87,0005.93,0004.39
2024-06-08 21:03:00,SystemResetWarning,0828.2,5.00,000.00,029.4,028.9,000.0,037.5,031.3,036.6,0000.0,0015.42,0005.92,0004.38
2024-06-08 21:04:00,SystemResetWarning,0828.2,5.00,000.00,029.4,029.0,000.0,037.5,031.4,037.7,0000.0,0015.17,0005.93,0004.40
2024-06-08 21:05:00,SystemResetWarning,0828.2,4.99,000.00,029.5,029.2,000.0,037.5,031.4,036.8,0000.0,0014.86,0005.98,0004.39
2024-06-08 21:06:00,SystemResetWarning,0828.0,4.98,000.00,029.5,028.7,000.0,037.6,031.2,035.8,0000.0,0014.24,0005.95,0004.39
2024-06-08 21:07:00,SystemResetWarning,0827.8,5.00,000.00,029.3,026.7,000.0,037.7,030.2,038.0,0000.0,0014.85,0005.91,0004.38
2024-06-08 21:08:00,SystemResetWarning,0827.8,5.00,000.00,028.9,025.7,000.0,037.7,029.6,037.5,0000.0,0015.75,0005.87,0004.38
2024-06-08 21:09:00,SystemResetWarning,0827.7,5.00,000.00,028.7,025.9,000.0,037.6,029.7,038.0,0000.0,0016.79,0005.89,0004.39
2024-06-08 21:10:00,SystemResetWarning,0827.7,5.01,000.00,028.7,026.3,000.0,037.5,029.9,039.6,0000.0,0017.37,0005.93,0004.37
2024-06-08 21:11:00,SystemResetWarning,0827.7,4.99,000.00,028.7,026.8,000.0,037.4,030.2,037.5,0000.0,0018.07,0005.95,0004.37
2024-06-08 21:12:00,SystemResetWarning,0827.7,4.99,000.00,028.8,027.2,000.0,037.3,030.4,035.5,0000.0,0018.89,0005.98,0004.37
2024-06-08 21:13:00,SystemResetWarning,0827.8,4.99,000.00,028.8,027.6,000.0,037.3,030.6,037.8,0000.0,0019.21,0005.94,0004.35
2024-06-08 21:14:00,SystemResetWarning,0827.9,5.01,000.00,028.9,027.9,000.0,037.3,030.7,038.7,0000.0,0019.89,0005.95,0004.35
2024-06-08 21:15:00,SystemResetWarning,0828.0,5.01,000.00,029.0,028.2,000.0,037.3,030.9,036.6,0000.0,0019.90,0005.97,0004.34
2024-06-08 21:16:00,SystemResetWarning,0828.1,5.01,000.00,029.1,028.4,000.0,037.3,031.0,036.5,0000.0,0020.88,0005.98,0004.33
2024-06-08 21:17:00,SystemResetWarning,0828.1,5.00,000.00,029.2,028.6,000.0,037.4,031.1,035.0,0000.0,0021.18,0005.99,0004.32
2024-06-08 21:18:00,SystemResetWarning,0828.1,5.00,000.00,029.3,028.8,000.0,037.4,031.2,035.0,0000.0,0021.13,0005.96,0004.30
2024-06-08 21:19:00,SystemResetWarning,0827.9,5.00,000.00,029.3,029.0,000.0,037.4,031.3,033.7,0000.0,0020.69,0005.96,0004.28
2024-06-08 21:20:00,SystemResetWarning,0827.8,5.00,000.00,029.4,029.1,000.0,037.5,031.4,034.6,0000.0,0020.16,0005.93,0004.26
2024-06-08 21:21:00,SystemResetWarning,0827.8,4.99,000.00,029.5,029.1,000.0,037.5,031.4,034.4,0000.0,0019.92,0005.92,0004.24
2024-06-08 21:22:00,SystemResetWarning,0827.7,4.99,000.00,029.4,027.6,000.0,037.6,030.6,034.9,0000.0,0020.63,0005.93,0004.23
2024-06-08 21:23:00,SystemResetWarning,0827.7,5.00,000.00,029.1,026.5,000.0,037.6,030.1,035.4,0000.0,0020.97,0005.96,0004.22
2024-06-08 21:24:00,SystemResetWarning,0827.7,5.01,000.00,028.9,026.7,000.0,037.6,030.1,036.5,0000.0,0021.57,0006.06,0004.24
2024-06-08 21:25:00,SystemResetWarning,0827.7,5.00,000.00,028.9,027.0,000.0,037.5,030.3,037.4,0000.0,0021.37,0006.04,0004.25
2024-06-08 21:26:00,SystemResetWarning,0827.7,5.00,000.00,029.0,027.4,000.0,037.4,030.6,035.5,0000.0,0021.61,0006.01,0004.26
2024-06-08 21:27:00,SystemResetWarning,0827.7,5.00,000.00,029.0,027.8,000.0,037.4,030.7,036.3,0000.0,0020.89,0006.01,0004.26
2024-06-08 21:28:00,SystemResetWarning,0827.7,5.00,000.00,029.1,028.1,000.0,037.4,030.9,036.6,0000.0,0020.62,0006.00,0004.26
2024-06-08 21:29:00,SystemResetWarning,0827.7,5.00,000.00,029.2,028.4,000.0,037.4,031.0,037.3,0000.0,0020.72,0006.06,0004.26
2024-06-08 21:30:00,SystemResetWarning,0827.7,5.00,000.00,029.3,028.6,000.0,037.5,031.1,037.7,0000.0,0021.15,0006.07,0004.27
2024-06-08 21:31:00,SystemResetWarning,0827.6,5.00,000.00,029.3,028.8,000.0,037.5,031.2,036.6,0000.0,0021.67,0006.16,0004.30
2024-06-08 21:32:00,SystemResetWarning,0827.6,4.99,000.00,029.4,028.9,000.0,037.5,031.3,037.3,0000.0,0021.96,0006.18,0004.32
2024-06-08 21:33:00,SystemResetWarning,0827.5,4.99,000.00,029.5,029.1,000.0,037.5,031.4,036.4,0000.0,0021.28,0006.14,0004.35
2024-06-08 21:34:00,SystemResetWarning,0827.5,5.01,000.00,029.6,029.2,000.0,037.6,031.5,036.5,0000.0,0020.94,0006.13,0004.38
2024-06-08 21:35:00,SystemResetWarning,0827.4,4.98,000.00,029.6,028.4,000.0,037.7,031.0,037.1,0000.0,0021.26,0006.09,0004.41
2024-06-08 21:36:00,SystemResetWarning,0827.4,5.00,000.00,029.2,026.4,000.0,037.7,030.1,039.0,0000.0,0021.43,0006.18,0004.44
2024-06-08 21:37:00,SystemResetWarning,0827.4,5.01,000.00,028.9,025.7,000.0,037.7,029.7,038.8,0000.0,0021.19,0006.22,0004.48
2024-06-08 21:38:00,SystemResetWarning,0827.5,5.00,000.00,028.8,025.9,000.0,037.6,029.8,039.7,0000.0,0021.60,0006.22,0004.53
2024-06-08 21:39:00,SystemResetWarning,0827.8,5.01,000.00,028.7,026.4,000.0,037.5,030.0,039.5,0000.0,0022.74,0006.28,0004.58
2024-06-08 21:40:00,SystemResetWarning,0827.5,5.00,000.00,028.8,026.9,000.0,037.4,030.3,039.2,0000.0,0023.04,0006.31,0004.63
2024-06-08 21:41:00,SystemResetWarning,0827.5,5.01,000.00,028.8,027.3,000.0,037.4,030.5,039.0,0000.0,0022.84,0006.35,0004.68
2024-06-08 21:42:00,SystemResetWarning,0827.6,5.00,000.00,028.9,027.7,000.0,037.4,030.7,039.0,0000.0,0022.13,0006.33,0004.74
2024-06-08 21:43:00,SystemResetWarning,0827.6,5.00,000.00,029.0,028.0,000.0,037.4,030.8,038.6,0000.0,0021.75,0006.38,0004.81
2024-06-08 21:44:00,SystemResetWarning,0827.4,5.00,000.00,029.1,028.3,000.0,037.4,030.9,038.0,0000.0,0021.54,0006.47,0004.88
2024-06-08 21:45:00,SystemResetWarning,0827.4,5.00,000.00,029.1,028.5,000.0,037.4,031.0,038.8,0000.0,0020.93,0006.54,0004.95
2024-06-08 21:46:00,SystemResetWarning,0827.6,4.99,000.00,029.2,028.7,000.0,037.4,031.1,039.0,0000.0,0019.88,0006.59,0005.01
2024-06-08 21:47:00,SystemResetWarning,0827.7,4.99,000.00,029.3,028.9,000.0,037.4,031.2,039.4,0000.0,0019.12,0006.57,0005.06
2024-06-08 21:48:00,SystemResetWarning,0827.7,5.00,000.00,029.4,029.0,000.0,037.5,031.3,039.3,0000.0,0019.02,0006.59,0005.10
2024-06-08 21:49:00,SystemResetWarning,0827.8,5.01,000.00,029.5,029.1,000.0,037.5,031.4,039.3,0000.0,0018.20,0006.65,0005.12
2024-06-08 21:50:00,SystemResetWarning,0827.8,5.00,000.00,029.5,029.0,000.0,037.6,031.3,039.1,0000.0,0017.86,0006.75,0005.17
2024-06-08 21:51:00,SystemResetWarning,0827.7,4.98,000.00,029.3,027.2,000.0,037.6,030.4,039.2,0000.0,0016.67,0006.71,0005.21
2024-06-08 21:52:00,SystemResetWarning,0827.7,5.02,000.00,028.9,025.5,000.0,037.7,029.6,040.2,0000.0,0016.43,0006.70,0005.25
2024-06-08 21:53:00,SystemResetWarning,0827.7,5.01,000.00,028.7,025.5,000.0,037.6,029.5,041.0,0000.0,0016.71,0006.75,0005.28
2024-06-08 21:54:00,SystemResetWarning,0827.7,4.99,000.00,028.6,026.0,000.0,037.5,029.8,041.2,0000.0,0016.70,0006.77,0005.30
2024-06-08 21:55:00,SystemResetWarning,0827.7,4.99,000.00,028.6,026.5,000.0,037.4,030.0,040.7,0000.0,0016.59,0006.72,0005.30
2024-06-08 21:56:00,SystemResetWarning,0827.8,5.00,000.00,028.7,027.0,000.0,037.3,030.3,040.6,0000.0,0016.82,0006.66,0005.29
2024-06-08 21:57:00,SystemResetWarning,0827.8,5.00,000.00,028.8,027.4,000.0,037.3,030.5,040.7,0000.0,0017.45,0006.66,0005.30
2024-06-08 21:58:00,SystemResetWarning,0827.8,5.02,000.00,028.8,027.7,000.0,037.2,030.6,040.1,0000.0,0017.05,0006.62,0005.30
2024-06-08 21:59:00,SystemResetWarning,0827.8,4.99,000.00,028.9,028.0,000.0,037.2,030.8,040.1,0000.0,0017.67,0006.62,0005.28
